Weather observations for the past three days for
Sitka - Sitka Airport
Metric (Imperial)
Date Time (akdt) Wind (kph) Vis. (km) Weather Sky Cond. Temperature (ºC) Relative Humidity Wind Chill (°C) Heat Index (°C) Pressure Precipitation (cm)
Air Dwpt 6 hour altimeter (cm) sea level (mb) 1 hr 3 hr 6 hr
Max. Min.
16 04:53 Calm 16.09 Overcast OVC009 11.1 7.8 80% 76.5 1020.0
16 03:53 N 9 16.09 Overcast OVC010 11.1 8.3 12.2 11.1 83% 76.5 1019.9
16 02:53 NW 9 16.09 Overcast OVC010 11.1 8.3 83% 76.5 1020.0
16 01:53 NW 15 16.09 Overcast OVC011 11.7 8.3 80% 76.5 1020.0
16 00:53 N 9 16.09 Partly Cloudy FEW010 SCT020 11.1 8.3 83% 76.48 1019.6
15 23:53 NW 17 16.09 A Few Clouds FEW012 FEW030 11.7 8.3 80% 76.45 1019.3
15 22:53 NW 17 16.09 A Few Clouds FEW012 11.7 8.3 80% 76.43 1019.0
15 21:53 NW 19 16.09 A Few Clouds FEW010 12.2 8.3 16.1 12.2 77% 76.43 1018.9
15 20:53 NW 19 16.09 A Few Clouds FEW010 12.8 8.3 74% 76.4 1018.6
15 19:53 NW 19 16.09 A Few Clouds FEW010 FEW030 13.9 8.3 69% 76.38 1018.3
15 18:53 NW 22 16.09 A Few Clouds FEW010 FEW030 FEW200 14.4 8.9 70% 76.35 1017.9
15 17:53 NW 22 16.09 A Few Clouds FEW040 FEW080 14.4 8.9 70% 76.35 1017.9
15 16:53 NW 22 16.09 A Few Clouds FEW040 FEW080 15 8.9 67% 76.35 1017.8
15 15:53 NW 20 16.09 A Few Clouds FEW040 FEW080 16.1 8.9 16.7 12.8 63% 76.33 1017.6
15 14:53 W 13 16.09 A Few Clouds FEW040 FEW080 16.1 8.3 60% 76.33 1017.5
15 13:53 W 11 16.09 A Few Clouds FEW040 FEW080 14.4 8.3 67% 76.33 1017.5
15 12:54 SW 13 16.09 Fair CLR 14.4 8.3 67% 76.3 1017.2
15 11:53 SW 11 16.09 Overcast OVC030 13.3 7.8 70% 76.3 1017.2
15 10:53 W 11 16.09 Overcast OVC032 13.3 7.2 67% 76.3 1017.2
15 09:53 W 15 16.09 Mostly Cloudy BKN027 13.3 7.2 13.3 10.6 67% 76.3 1017.4
15 07:53 NW 17 16.09 Fair CLR 11.7 6.7 72% 76.33 1017.5
15 06:53 Calm 16.09 Fair CLR 11.1 6.7 75% 76.35 1018.1
15 05:53 Calm 16.09 Mostly Cloudy BKN026 BKN250 11.1 6.7 75% 76.38 1018.2
15 04:53 N 13 16.09 Mostly Cloudy BKN023 10.6 6.7 77% 76.38 1018.2
15 03:53 N 6 16.09 Mostly Cloudy BKN017 10.6 6.7 11.7 8.9 77% 76.38 1018.4
15 02:53 N 6 16.09 Mostly Cloudy BKN017 10 7.2 83% 76.4 1018.6
15 01:53 E 7 16.09 Partly Cloudy FEW015 SCT200 8.9 6.1 83% 8 76.4 1018.5
15 00:53 NW 9 16.09 Mostly Cloudy FEW015 BKN200 10.6 6.7 77% 76.4 1018.5
14 23:53 NW 13 16.09 Mostly Cloudy FEW015 BKN200 11.1 7.2 77% 76.4 1018.6
14 22:53 NW 17 16.09 Mostly Cloudy FEW015 FEW080 BKN250 11.7 7.2 74% 76.4 1018.6
14 21:53 NW 17 16.09 Mostly Cloudy FEW015 FEW080 BKN250 11.7 7.2 15.6 11.7 74% 76.38 1018.1
14 20:53 W 13 16.09 Partly Cloudy FEW010 SCT250 13.3 7.8 70% 76.33 1017.7
14 19:53 NW 15 16.09 Partly Cloudy FEW010 SCT250 13.3 7.8 70% 76.33 1017.7
14 18:53 SW 13 16.09 Partly Cloudy FEW050 SCT250 13.3 7.2 67% 76.33 1017.6
14 17:53 W 15 16.09 Partly Cloudy FEW050 SCT200 15 7.2 60% 76.3 1017.4
14 16:53 SW 11 16.09 Partly Cloudy FEW050 SCT180 13.3 7.2 67% 76.33 1017.7
14 15:53 W 11 16.09 Partly Cloudy FEW050 SCT160 13.9 6.7 15.6 11.1 62% 76.33 1017.7
14 14:53 W 13 16.09 Partly Cloudy FEW030 SCT120 14.4 7.2 62% 76.33 1017.6
14 13:53 W 19 16.09 Fair CLR 14.4 7.8 65% 76.3 1017.4
14 12:53 W 11 16.09 Fair CLR 13.9 7.2 64% 76.28 1016.9
14 11:53 NW 17 16.09 Fair CLR 12.8 7.2 69% 76.25 1016.5
14 10:53 NW 20 16.09 Partly Cloudy FEW041 SCT060 11.7 7.2 74% 76.23 1016.2
14 09:53 NW 20 16.09 Overcast SCT049 OVC055 11.1 7.2 11.1 9.4 77% 76.2 1015.8 0.03 0.03
14 07:53 N 11 16.09 Overcast OVC070 11.1 7.8 80% 76.15 1015.4
14 06:53 Calm 14.48 Light Rain FEW050 OVC065 10 7.8 86% 76.15 1015.1
14 05:53 Calm 16.09 Overcast FEW020 SCT100 OVC120 10 7.8 86% 76.12 1014.8
14 04:53 Calm 16.09 Overcast OVC100 10 7.8 86% 76.12 1014.9
14 03:53 E 6 16.09 Overcast OVC090 10 7.2 11.7 10 83% 76.15 1015.2
14 02:53 Calm 16.09 Overcast OVC090 10 7.2 83% 76.15 1015.2
14 01:53 Calm 16.09 Overcast OVC085 10 7.8 86% 76.17 1015.5
14 00:53 E 6 16.09 Overcast OVC070 10.6 7.8 83% 76.17 1015.7
13 23:53 Calm 16.09 Mostly Cloudy SCT060 BKN080 10.6 7.8 83% 76.2 1015.9
13 22:53 Calm 16.09 Overcast FEW060 OVC080 10.6 7.8 83% 76.23 1016.2
13 21:53 E 6 16.09 Mostly Cloudy SCT060 BKN080 11.1 8.3 15 11.1 83% 76.23 1016.3 0.08
13 20:53 E 9 16.09 Mostly Cloudy BKN060 11.7 7.8 77% 76.25 1016.5
13 19:53 E 11 16.09 Mostly Cloudy FEW015 FEW020 BKN070 12.8 6.7 67% 76.25 1016.7
13 17:53 W 20 16.09 Light Rain FEW030 SCT046 BKN060 13.3 6.7 65% 76.28 1016.9 0.03
13 16:53 NW 19 16.09 Mostly Cloudy SCT045 BKN090 15 6.7 58% 76.28 1017.0
13 15:53 W 15 16.09 Mostly Cloudy SCT040 BKN070 14.4 7.2 15.6 12.2 62% 76.3 1017.4
13 14:53 NW 11 16.09 Mostly Cloudy SCT055 BKN075 14.4 7.2 62% 76.35 1017.8
13 13:53 SW 9 16.09 Mostly Cloudy SCT050 BKN060 15 8.3 64% 76.38 1018.2
13 12:53 W 13 16.09 Mostly Cloudy BKN065 15 6.1 56% 76.38 1018.4
13 11:53 W 11 16.09 Mostly Cloudy FEW028 BKN060 13.9 4.4 53% 76.43 1018.8
13 10:53 W 9 16.09 Partly Cloudy FEW060 SCT110 13.3 7.2 67% 76.45 1019.2
13 09:53 NW 15 16.09 Partly Cloudy FEW055 SCT110 12.2 6.7 12.2 6.7 69% 76.48 1019.6
13 08:53 NW 11 16.09 Partly Cloudy FEW050 SCT110 11.7 6.7 72% 76.53 1020.1
13 07:53 NW 7 16.09 Partly Cloudy FEW050 SCT100 10 6.7 80% 9 76.53 1020.3
13 06:53 NW 6 16.09 A Few Clouds FEW050 FEW100 FEW200 9.4 6.7 83% 76.53 1020.4
13 05:53 Calm 16.09 Mostly Cloudy FEW015 SCT050 SCT100 BKN200 8.3 6.1 86% 76.56 1020.7
Date Time (akdt) Wind (kph) Vis. (km) Weather Sky Cond. Air Dwpt Max. Min. Relative Humidity Wind Chill (°C) Heat Index (°C) altimeter (cm) sea level (mb) 1 hr 3 hr 6 hr
6 hour
Temperature (ºC) Pressure Precipitation (cm)